TJS-10

Last updated on Fri Sep 12 2025 00:02:50 GMT+0000 (Coordinated Universal Time)

1 58204U 23169A 25254.67357023 -.00000002 00000+0 00000+0 0 9992 2 58204 1.8198 83.8818 0003950 134.5389 188.0101 1.00270499 6742
UTC large
Height (km)
Speed (km/s)
/
Latitude / Longitude
Inclination (degrees)
Orbital Period (minutes)
Azimuth
Elevation
Range (km)
Doppler Factor

Next 0 passes for location: London (51.5072 / 0.1276)

Sorry there are no passes over London.